Weather in Work Umyot

Russia / Tambov Oblast     52°33′29″N   42°58′00″E
temp.,
°C
wind,
m/s
gust,
m/s
humid.,
%
clouds,
%
prec.,
mm/h
press.,
hPa
HPBL,
m
22 october, fri
fri2200:00+11sw81767100 0.0 1007695
03:00+10sw81666100 0.0 1006668
06:00+8sw81765100 0.0 1005594
09:00+10sw91668100 0.0 1005685
12:00+13sw91463100 0.0 1006854
15:00+14wsw8136494 0.0 10061045
18:00+12wsw71469100 0.0 1008572
21:00+10sw614774 0.0 1010402
23 october, sat
sat2300:00+9wsw5137638 0.0 1011341
03:00+7sw411765 0.0 1011230
06:00+6sw512794 0.0 1012241
09:00+9sw6126412 0.0 1012537
12:00+13wsw7124299 0.0 10121329
15:00+14ssw4850100 0.0 10101242
18:00+13sw81458100 0.4 10101034
21:00+9wnw511655 0.5 1011446
24 october, sun
sun2400:00+6w511680 0.0 1013387
03:00+4w411774 0.0 1014395
06:00+3wsw410865 0.0 1015317
09:00+4wsw69775 0.0 1015543
12:00+8wsw795278 0.0 10151483
15:00+8w6951100 0.0 10151754
18:00+6w586799 0.2 1015707
21:00+3w369494 0.4 1015598
25 october, mon
mon2500:00+3nnw2596100 2.0 1016359
03:00+3nnw4791100 2.2 1016587
06:00+2nnw598694 0.1 1018611
09:00+2nnw61090100 0.3 1020812
12:00+2nnw8971100 0.0 10231052
15:00+2nnw7971100 0.1 10251112
18:00+2n6106043 0.0 10281158
21:000nnw510695 0.0 1029410
26 october, tue
tue2600:00−2nnw377982 0.0 1031179
03:00−2nw348122 0.0 103285
06:00−2wnw357972 0.0 103297
09:000w47645 0.0 1032299
12:00+4w67411 0.0 1030733
15:00+5w693922 0.0 1028829
18:00+1wsw410545 0.0 1028203
21:000sw4125845 0.0 1027251